Regional Weather Roundup
Issued by NWS Charleston, WV

Home | Current Version | Previous Version | Graphics & Text | Print | Product List | Glossary On
Versions: 1 2 3 4 5 6 7 8 9 10 11 12 13 14 15 16 17 18 19 20 21 22 23 24 25 26 27 28 29 30 31 32 33 34 35 36 37 38 39 40 41 42 43 44 45 46 47 48 49 50
000
ASUS41 KRLX 300410
RWRRLX
West Virginia Regional Weather Roundup
National Weather Service Charleston WV
1200 AM EDT SAT MAY 30 2015

Note: "fair" indicates few or no clouds below 12,000 feet with no
significant weather and/or obstructions to visibility.

WVZ003-300500-
Northern Panhandle of West Virginia

CITY           SKY/WX    TMP DP  RH WIND       PRES   REMARKS
WHEELING       MOCLDY    72  63  73 S8        30.13F
$$

WVZ009-300500-
Northwest West Virginia

CITY           SKY/WX    TMP DP  RH WIND       PRES   REMARKS
PARKERSBURG    CLEAR     67  64  90 CALM      30.15S
$$

WVZ006-300500-
Western West Virginia

CITY           SKY/WX    TMP DP  RH WIND       PRES   REMARKS
HUNTINGTON     MOCLDY    68  67  96 SE3       30.12S
$$

WVZ015-300500-
West Central West Virginia

CITY           SKY/WX    TMP DP  RH WIND       PRES   REMARKS
CHARLESTON     MOCLDY    67  66  97 CALM      30.14S
$$

WVZ022-031-300500-
North Central West Virginia

CITY           SKY/WX    TMP DP  RH WIND       PRES   REMARKS
CLARKSBURG     PTCLDY    66  64  93 CALM      30.16S
MORGANTOWN     MOCLDY    73  61  65 CALM      30.16F
$$

WVZ025-035-042-045-300500-
Southern West Virginia

CITY           SKY/WX    TMP DP  RH WIND       PRES   REMARKS
BECKLEY        CLEAR     64  59  83 SE9       30.23S
LOGAN            N/A     68  64  88 CALM      30.15R
BLUEFIELD      CLEAR     67  59  75 S5        30.26F
LEWISBURG      CLEAR     63  60  91 CALM      30.25S
$$

WVZ047-300500-
Northern Mountains of West Virginia

CITY           SKY/WX    TMP DP  RH WIND       PRES   REMARKS
ELKINS         CLEAR     62  60  93 CALM      30.22S
$$

WVZ052-300500-
Eastern Panhandle of West Virginia

CITY           SKY/WX    TMP DP  RH WIND       PRES   REMARKS
MARTINSBURG    PTCLDY    69  66  90 SE3       30.18F
PETERSBURG       N/A     66  63  89 CALM      30.19F FOG
$$



USA.gov is the U.S. government's official web portal to all federal, state and local government web resources and services.